Previsão horária em Kabanbay

Hoje, 19 Junho, Sábado

Tempo Temperatura Precipitação Vento Pressão Humidade
00:00 +25°C° 0 mm 2 m/s 715 mmHg 39%
01:00 +24°C° 0 mm 2 m/s 715 mmHg 41%
02:00 +24°C° 0 mm 2 m/s 714 mmHg 42%
03:00 +24°C° 0 mm 2 m/s 714 mmHg 43%
04:00 +24°C° 0 mm 2 m/s 714 mmHg 42%
05:00 +24°C° 0 mm 2 m/s 714 mmHg 41%
06:00 +25°C° 0 mm 2 m/s 714 mmHg 40%
07:00 +26°C° 0 mm 2 m/s 714 mmHg 37%
08:00 +28°C° 0 mm 1 m/s 714 mmHg 33%
09:00 +30°C° 0 mm 1 m/s 714 mmHg 29%
10:00 +31°C° 0 mm 2 m/s 714 mmHg 27%
11:00 +33°C° 0 mm 3 m/s 714 mmHg 25%
12:00 +34°C° 0 mm 4 m/s 714 mmHg 23%
13:00 +32°C° 0.1 mm 5 m/s 714 mmHg 30%
14:00 +28°C° 0.1 mm 6 m/s 713 mmHg 37%
15:00 +26°C° 0.1 mm 8 m/s 713 mmHg 44%
16:00 +27°C° 0.1 mm 6 m/s 713 mmHg 41%
17:00 +27°C° 0.1 mm 4 m/s 713 mmHg 39%
18:00 +28°C° 0.1 mm 2 m/s 712 mmHg 36%
19:00 +27°C° 0 mm 2 m/s 712 mmHg 39%
20:00 +26°C° 0 mm 2 m/s 713 mmHg 43%
21:00 +25°C° 0 mm 3 m/s 713 mmHg 46%
22:00 +22°C° 0 mm 4 m/s 713 mmHg 57%
23:00 +19°C° 0 mm 5 m/s 714 mmHg 68%

Amanhã, 20 Junho, Domingo

Tempo Temperatura Precipitação Vento Pressão Humidade
00:00 +16°C° 0 mm 7 m/s 714 mmHg 79%
01:00 +15°C° 0.1 mm 7 m/s 714 mmHg 80%
02:00 +14°C° 0.1 mm 7 m/s 714 mmHg 82%
03:00 +12°C° 0.1 mm 7 m/s 715 mmHg 84%
04:00 +12°C° 0.1 mm 7 m/s 716 mmHg 82%
05:00 +12°C° 0.1 mm 8 m/s 717 mmHg 80%
06:00 +11°C° 0.1 mm 8 m/s 718 mmHg 78%
07:00 +12°C° 0 mm 8 m/s 718 mmHg 73%
08:00 +12°C° 0 mm 7 m/s 719 mmHg 69%
09:00 +12°C° 0 mm 7 m/s 720 mmHg 65%
10:00 +14°C° 0 mm 7 m/s 720 mmHg 59%
11:00 +15°C° 0 mm 8 m/s 721 mmHg 54%
12:00 +16°C° 0 mm 8 m/s 721 mmHg 49%
13:00 +16°C° 0 mm 7 m/s 721 mmHg 44%
14:00 +17°C° 0 mm 7 m/s 721 mmHg 40%
15:00 +19°C° 0 mm 6 m/s 721 mmHg 36%
16:00 +19°C° 0 mm 5 m/s 721 mmHg 34%
17:00 +19°C° 0 mm 4 m/s 721 mmHg 32%
18:00 +19°C° 0 mm 2 m/s 721 mmHg 30%
19:00 +18°C° 0 mm 2 m/s 722 mmHg 34%
20:00 +17°C° 0 mm 3 m/s 722 mmHg 37%
21:00 +14°C° 0 mm 3 m/s 722 mmHg 41%
22:00 +14°C° 0 mm 3 m/s 722 mmHg 42%
23:00 +13°C° 0 mm 3 m/s 722 mmHg 44%

Depois de amanhã, 21 Junho, Segunda-feira

Tempo Temperatura Precipitação Vento Pressão Humidade
00:00 +13°C° 0 mm 3 m/s 722 mmHg 46%
01:00 +12°C° 0 mm 3 m/s 721 mmHg 47%
02:00 +12°C° 0 mm 3 m/s 721 mmHg 49%
03:00 +11°C° 0 mm 3 m/s 721 mmHg 50%
04:00 +12°C° 0 mm 3 m/s 721 mmHg 49%
05:00 +13°C° 0 mm 3 m/s 721 mmHg 47%
06:00 +13°C° 0 mm 3 m/s 720 mmHg 46%
07:00 +15°C° 0 mm 4 m/s 720 mmHg 40%
08:00 +18°C° 0 mm 4 m/s 720 mmHg 35%
09:00 +20°C° 0 mm 5 m/s 719 mmHg 30%
10:00 +22°C° 0 mm 4 m/s 719 mmHg 27%
11:00 +23°C° 0 mm 4 m/s 718 mmHg 25%
12:00 +26°C° 0 mm 3 m/s 718 mmHg 22%
13:00 +26°C° 0 mm 3 m/s 718 mmHg 22%
14:00 +27°C° 0 mm 4 m/s 717 mmHg 22%
15:00 +27°C° 0 mm 4 m/s 717 mmHg 22%
16:00 +24°C° 0 mm 6 m/s 717 mmHg 30%
17:00 +21°C° 0 mm 8 m/s 717 mmHg 38%
18:00 +18°C° 0 mm 10 m/s 717 mmHg 46%
19:00 +17°C° 0 mm 7 m/s 718 mmHg 52%
20:00 +16°C° 0 mm 5 m/s 718 mmHg 59%
21:00 +16°C° 0 mm 2 m/s 718 mmHg 66%
22:00 +16°C° 0 mm 2 m/s 718 mmHg 66%
23:00 +16°C° 0 mm 2 m/s 717 mmHg 67%

22 Junho, Terça-feira

Tempo Temperatura Precipitação Vento Pressão Humidade
00:00 +15°C° 0 mm 2 m/s 717 mmHg 67%
01:00 +14°C° 0.1 mm 3 m/s 717 mmHg 68%
02:00 +14°C° 0.1 mm 4 m/s 717 mmHg 69%
03:00 +14°C° 0.1 mm 4 m/s 717 mmHg 71%
04:00 +15°C° 0.1 mm 4 m/s 717 mmHg 67%
05:00 +15°C° 0.1 mm 4 m/s 717 mmHg 63%
06:00 +17°C° 0.1 mm 4 m/s 717 mmHg 59%
07:00 +18°C° 0 mm 4 m/s 718 mmHg 57%
08:00 +19°C° 0 mm 4 m/s 718 mmHg 56%
09:00 +19°C° 0 mm 4 m/s 719 mmHg 54%
10:00 +19°C° 0.3 mm 5 m/s 719 mmHg 53%
11:00 +19°C° 0.3 mm 5 m/s 719 mmHg 52%
12:00 +19°C° 0.3 mm 6 m/s 719 mmHg 50%
13:00 +17°C° 0.4 mm 5 m/s 720 mmHg 55%
14:00 +17°C° 0.4 mm 3 m/s 720 mmHg 60%
15:00 +16°C° 0.4 mm 2 m/s 721 mmHg 65%
16:00 +16°C° 0.2 mm 2 m/s 721 mmHg 64%
17:00 +16°C° 0.2 mm 2 m/s 721 mmHg 63%
18:00 +16°C° 0.2 mm 2 m/s 722 mmHg 62%
19:00 +16°C° 0.1 mm 2 m/s 722 mmHg 62%
20:00 +14°C° 0.1 mm 3 m/s 723 mmHg 62%
21:00 +14°C° 0.1 mm 4 m/s 723 mmHg 62%
22:00 +13°C° 0 mm 4 m/s 723 mmHg 63%
23:00 +13°C° 0 mm 4 m/s 723 mmHg 64%

23 Junho, Quarta-feira

Tempo Temperatura Precipitação Vento Pressão Humidade
00:00 +13°C° 0 mm 4 m/s 723 mmHg 65%
01:00 +12°C° 0 mm 3 m/s 723 mmHg 66%
02:00 +11°C° 0 mm 3 m/s 723 mmHg 67%
03:00 +11°C° 0 mm 3 m/s 723 mmHg 68%
04:00 +11°C° 0 mm 3 m/s 723 mmHg 66%
05:00 +13°C° 0 mm 2 m/s 723 mmHg 64%
06:00 +13°C° 0 mm 2 m/s 723 mmHg 62%
07:00 +14°C° 0 mm 2 m/s 723 mmHg 57%
08:00 +16°C° 0 mm 1 m/s 723 mmHg 52%
09:00 +18°C° 0 mm 1 m/s 723 mmHg 46%
10:00 +19°C° 0 mm 1 m/s 723 mmHg 43%
11:00 +20°C° 0 mm 1 m/s 723 mmHg 39%
12:00 +21°C° 0 mm 1 m/s 722 mmHg 35%
13:00 +21°C° 0 mm 2 m/s 722 mmHg 34%
14:00 +21°C° 0 mm 3 m/s 721 mmHg 33%
15:00 +22°C° 0 mm 3 m/s 721 mmHg 32%
16:00 +22°C° 0 mm 4 m/s 720 mmHg 33%
17:00 +22°C° 0 mm 5 m/s 719 mmHg 34%
18:00 +21°C° 0 mm 5 m/s 719 mmHg 35%
19:00 +20°C° 0 mm 5 m/s 718 mmHg 37%
20:00 +19°C° 0 mm 4 m/s 718 mmHg 39%
21:00 +18°C° 0 mm 4 m/s 718 mmHg 40%
22:00 +19°C° 0 mm 4 m/s 718 mmHg 39%
23:00 +19°C° 0 mm 3 m/s 717 mmHg 38%

24 Junho, Quinta-feira

Tempo Temperatura Precipitação Vento Pressão Humidade
00:00 +19°C° 0 mm 3 m/s 717 mmHg 37%
01:00 +18°C° 0.2 mm 4 m/s 717 mmHg 44%
02:00 +18°C° 0.2 mm 4 m/s 717 mmHg 51%
03:00 +16°C° 0.2 mm 5 m/s 717 mmHg 58%
04:00 +17°C° 0.1 mm 4 m/s 717 mmHg 57%
05:00 +18°C° 0.1 mm 4 m/s 716 mmHg 57%
06:00 +18°C° 0.1 mm 4 m/s 716 mmHg 56%
07:00 +17°C° 0.2 mm 4 m/s 717 mmHg 61%
08:00 +16°C° 0.2 mm 5 m/s 717 mmHg 66%
09:00 +15°C° 0.2 mm 5 m/s 717 mmHg 71%
10:00 +15°C° 0.9 mm 5 m/s 717 mmHg 73%
11:00 +14°C° 0.9 mm 4 m/s 717 mmHg 76%
12:00 +14°C° 0.9 mm 3 m/s 717 mmHg 78%
13:00 +14°C° 1 mm 3 m/s 717 mmHg 78%
14:00 +14°C° 1 mm 3 m/s 718 mmHg 77%
15:00 +14°C° 1 mm 4 m/s 718 mmHg 76%
16:00 +16°C° 0.2 mm 3 m/s 718 mmHg 70%
17:00 +17°C° 0.2 mm 3 m/s 718 mmHg 64%
18:00 +18°C° 0.2 mm 2 m/s 718 mmHg 57%
19:00 +17°C° 0.1 mm 2 m/s 718 mmHg 62%
20:00 +16°C° 0.1 mm 1 m/s 719 mmHg 68%
21:00 +15°C° 0.1 mm 1 m/s 719 mmHg 73%
22:00 +15°C° 0.1 mm 2 m/s 719 mmHg 71%
23:00 +14°C° 0.1 mm 3 m/s 719 mmHg 69%
Mostrar mais

Necessitamos do seu Consentimento

A Meteoprog e os seus Fornecedores de Serviços podem armazenar e aceder a dados pessoais como cookies, identificadores do dispositivo ou outras tecnologias semelhantes existentes no seu dispositivo e processar estes dados para personalizar conteúdos e anúncios, assim como funcionalidades nas redes sociais e análise de tráfego.

  • Armazenar e/ou aceder a informações no seu dispositivo

    Os cookies, identificadores do dispositivo ou outras informações podem ser armazenados ou acedidos no seu dispositivo, para os fins acima indicados.

  • Anúncios e conteúdos personalizados, medição de anúncios e conteúdos, dados sobre o público-alvo e desenvolvimento de produtos

    Os anúncios e os conteúdos podem ser personalizados com base num perfil. Podem ser adicionados dados adicionais para uma maior personalização dos anúncios e dos conteúdos. A eficácia dos anúncios e dos conteúdos pode ser medida. Podem ser obtidas informações sobre o público que visualizou os anúncios e os conteúdos. Estes dados podem ser usados para desenvolver ou melhorar sistemas, softwares ou a experiência do utilizador.

Ao clicar em "Eu concordo”, permitirá o uso de cookies, identificadores do dispositivo e web beacons mencionados ou outras tecnologias semelhantes. As configurações do navegador do seu dispositivo podem ser alteradas.

Para certos fins, podem ser invocados interesses legítimos ao invés de consentimento. Pode ler mais informação sobre este assunto na nossa Política de Privacidade e Cookies.